Time,TemperatureF,DewpointF,PressureIn,WindDirection,WindDirectionDegrees,WindSpeedMPH,WindSpeedGustMPH,Humidity,HourlyPrecipIn,Conditions,Clouds,dailyrainin,SoftwareType,DateUTC
2013-05-06 00:02:00,30.3,21.0,29.76,South,180,0.0,0.0,68,0.00,,,0.00,WUHU216HW,2013-05-06 08:02:00,
2013-05-06 00:07:00,30.3,21.0,29.76,South,180,0.0,0.0,68,0.00,,,0.00,WUHU216HW,2013-05-06 08:07:00,
2013-05-06 00:12:00,30.2,21.2,29.76,South,180,0.0,0.0,69,0.00,,,0.00,WUHU216HW,2013-05-06 08:12:00,
2013-05-06 00:17:00,30.0,21.0,29.76,South,180,0.0,0.0,69,0.00,,,0.00,WUHU216HW,2013-05-06 08:17:00,
2013-05-06 00:22:00,30.0,21.0,29.76,South,180,0.0,0.0,69,0.00,,,0.00,WUHU216HW,2013-05-06 08:22:00,
2013-05-06 00:27:00,29.8,21.2,29.76,South,180,0.0,0.0,70,0.00,,,0.00,WUHU216HW,2013-05-06 08:27:00,
2013-05-06 00:32:00,29.8,21.2,29.76,South,180,0.0,0.0,70,0.00,,,0.00,WUHU216HW,2013-05-06 08:32:00,
2013-05-06 00:37:00,29.4,20.9,29.76,South,180,0.0,0.0,70,0.00,,,0.00,WUHU216HW,2013-05-06 08:37:00,
2013-05-06 00:42:00,29.4,21.2,29.76,South,180,0.0,0.0,71,0.00,,,0.00,WUHU216HW,2013-05-06 08:42:00,
2013-05-06 00:47:00,29.3,21.0,29.76,South,180,0.0,0.0,71,0.00,,,0.00,WUHU216HW,2013-05-06 08:47:00,
2013-05-06 00:52:00,29.3,21.0,29.76,South,180,0.0,0.0,71,0.00,,,0.00,WUHU216HW,2013-05-06 08:52:00,
2013-05-06 00:57:00,29.1,21.2,29.76,South,180,0.0,0.0,72,0.00,,,0.00,WUHU216HW,2013-05-06 08:57:00,
2013-05-06 01:02:00,29.1,21.2,29.76,South,180,0.0,0.0,72,0.00,,,0.00,WUHU216HW,2013-05-06 09:02:00,
2013-05-06 01:07:00,29.1,21.2,29.77,South,180,0.0,0.0,72,0.00,,,0.00,WUHU216HW,2013-05-06 09:07:00,
2013-05-06 01:12:00,28.9,21.0,29.77,South,180,0.0,0.0,72,0.00,,,0.00,WUHU216HW,2013-05-06 09:12:00,
2013-05-06 01:17:00,28.9,21.0,29.77,South,180,0.0,0.0,72,0.00,,,0.00,WUHU216HW,2013-05-06 09:17:00,
2013-05-06 01:22:00,28.9,21.0,29.77,South,180,0.0,0.0,72,0.00,,,0.00,WUHU216HW,2013-05-06 09:22:00,
2013-05-06 01:27:00,28.7,20.8,29.77,South,180,0.0,0.0,72,0.00,,,0.00,WUHU216HW,2013-05-06 09:27:00,
2013-05-06 01:32:00,28.7,20.8,29.77,South,180,0.0,0.0,72,0.00,,,0.00,WUHU216HW,2013-05-06 09:32:00,
2013-05-06 01:37:00,28.5,20.7,29.77,South,180,0.0,0.0,72,0.00,,,0.00,WUHU216HW,2013-05-06 09:37:00,
2013-05-06 01:42:00,28.5,20.7,29.77,South,180,0.0,0.0,72,0.00,,,0.00,WUHU216HW,2013-05-06 09:42:00,
2013-05-06 01:47:00,28.2,20.3,29.78,South,180,0.0,0.0,72,0.00,,,0.00,WUHU216HW,2013-05-06 09:47:00,
2013-05-06 01:52:00,28.2,20.3,29.78,South,180,0.0,0.0,72,0.00,,,0.00,WUHU216HW,2013-05-06 09:52:00,
2013-05-06 01:57:00,28.0,20.4,29.77,South,180,0.0,0.0,73,0.00,,,0.00,WUHU216HW,2013-05-06 09:57:00,
2013-05-06 02:02:00,28.0,20.4,29.77,South,180,0.0,0.0,73,0.00,,,0.00,WUHU216HW,2013-05-06 10:02:00,
2013-05-06 02:07:00,28.0,20.4,29.77,South,180,0.0,0.0,73,0.00,,,0.00,WUHU216HW,2013-05-06 10:07:00,
2013-05-06 02:12:00,28.0,20.4,29.77,South,180,0.0,0.0,73,0.00,,,0.00,WUHU216HW,2013-05-06 10:12:00,
2013-05-06 02:17:00,27.6,20.4,29.77,South,180,0.0,0.0,74,0.00,,,0.00,WUHU216HW,2013-05-06 10:17:00,
2013-05-06 02:22:00,27.6,20.4,29.77,South,180,0.0,0.0,74,0.00,,,0.00,WUHU216HW,2013-05-06 10:22:00,
2013-05-06 02:27:00,27.6,20.4,29.77,South,180,0.0,0.0,74,0.00,,,0.00,WUHU216HW,2013-05-06 10:27:00,
2013-05-06 02:32:00,27.6,20.4,29.77,South,180,0.0,0.0,74,0.00,,,0.00,WUHU216HW,2013-05-06 10:32:00,
2013-05-06 02:37:00,27.6,20.4,29.77,South,180,0.0,0.0,74,0.00,,,0.00,WUHU216HW,2013-05-06 10:37:00,
2013-05-06 02:42:00,27.6,20.4,29.77,South,180,0.0,0.0,74,0.00,,,0.00,WUHU216HW,2013-05-06 10:42:00,
2013-05-06 02:47:00,27.6,20.7,29.78,South,180,0.0,0.0,75,0.00,,,0.00,WUHU216HW,2013-05-06 10:47:00,
2013-05-06 02:52:00,27.8,20.9,29.77,South,180,0.0,0.0,75,0.00,,,0.00,WUHU216HW,2013-05-06 10:52:00,
2013-05-06 02:57:00,28.0,21.1,29.78,South,180,0.0,0.0,75,0.00,,,0.00,WUHU216HW,2013-05-06 10:57:00,
2013-05-06 03:02:00,28.0,21.1,29.78,South,180,0.0,0.0,75,0.00,,,0.00,WUHU216HW,2013-05-06 11:02:00,
2013-05-06 03:07:00,28.0,21.1,29.78,South,180,0.0,0.0,75,0.00,,,0.00,WUHU216HW,2013-05-06 11:07:00,
2013-05-06 03:12:00,28.0,21.1,29.77,South,180,0.0,0.0,75,0.00,,,0.00,WUHU216HW,2013-05-06 11:12:00,
2013-05-06 03:17:00,27.6,20.7,29.77,South,180,0.0,0.0,75,0.00,,,0.00,WUHU216HW,2013-05-06 11:17:00,
2013-05-06 03:22:00,27.6,20.7,29.77,South,180,0.0,0.0,75,0.00,,,0.00,WUHU216HW,2013-05-06 11:22:00,
2013-05-06 03:27:00,27.6,20.7,29.78,South,180,0.0,0.0,75,0.00,,,0.00,WUHU216HW,2013-05-06 11:27:00,
2013-05-06 03:32:00,28.0,21.1,29.78,South,180,0.0,0.0,75,0.00,,,0.00,WUHU216HW,2013-05-06 11:32:00,
2013-05-06 03:37:00,28.0,21.1,29.78,South,180,0.0,0.0,75,0.00,,,0.00,WUHU216HW,2013-05-06 11:37:00,
2013-05-06 03:42:00,28.0,21.1,29.77,South,180,0.0,0.0,75,0.00,,,0.00,WUHU216HW,2013-05-06 11:42:00,
2013-05-06 03:47:00,28.0,21.4,29.78,South,180,0.0,0.0,76,0.00,,,0.00,WUHU216HW,2013-05-06 11:47:00,
2013-05-06 03:52:00,28.2,21.5,29.78,South,180,0.0,0.0,76,0.00,,,0.00,WUHU216HW,2013-05-06 11:52:00,
2013-05-06 03:57:00,28.2,21.5,29.78,South,180,0.0,0.0,76,0.00,,,0.00,WUHU216HW,2013-05-06 11:57:00,
2013-05-06 04:02:00,28.2,21.5,29.78,South,180,0.0,0.0,76,0.00,,,0.00,WUHU216HW,2013-05-06 12:02:00,
2013-05-06 04:07:00,28.2,21.2,29.78,South,180,0.0,0.0,75,0.00,,,0.00,WUHU216HW,2013-05-06 12:07:00,
2013-05-06 04:12:00,28.2,21.2,29.78,South,180,0.0,0.0,75,0.00,,,0.00,WUHU216HW,2013-05-06 12:12:00,
2013-05-06 04:17:00,28.2,21.5,29.78,South,180,0.0,0.0,76,0.00,,,0.00,WUHU216HW,2013-05-06 12:17:00,
2013-05-06 04:22:00,28.2,21.5,29.78,South,180,0.0,0.0,76,0.00,,,0.00,WUHU216HW,2013-05-06 12:22:00,
2013-05-06 04:27:00,28.5,22.2,29.78,South,180,0.0,0.0,77,0.00,,,0.00,WUHU216HW,2013-05-06 12:27:00,
2013-05-06 04:32:00,28.5,22.2,29.78,South,180,0.0,0.0,77,0.00,,,0.00,WUHU216HW,2013-05-06 12:32:00,
2013-05-06 04:37:00,28.5,22.2,29.78,South,180,0.0,0.0,77,0.00,,,0.00,WUHU216HW,2013-05-06 12:37:00,
2013-05-06 04:42:00,28.5,22.2,29.78,South,180,0.0,0.0,77,0.00,,,0.00,WUHU216HW,2013-05-06 12:42:00,
2013-05-06 04:47:00,28.5,22.2,29.78,South,180,0.0,0.0,77,0.00,,,0.00,WUHU216HW,2013-05-06 12:47:00,
2013-05-06 04:52:00,28.7,22.4,29.78,South,180,0.0,0.0,77,0.00,,,0.00,WUHU216HW,2013-05-06 12:52:00,
2013-05-06 04:57:00,28.7,22.4,29.78,South,180,0.0,0.0,77,0.00,,,0.00,WUHU216HW,2013-05-06 12:57:00,
2013-05-06 05:02:00,28.9,22.6,29.78,South,180,0.0,0.0,77,0.00,,,0.00,WUHU216HW,2013-05-06 13:02:00,
2013-05-06 05:07:00,28.9,22.2,29.78,South,180,0.0,0.0,76,0.00,,,0.00,WUHU216HW,2013-05-06 13:07:00,
2013-05-06 05:12:00,28.9,22.2,29.78,South,180,0.0,0.0,76,0.00,,,0.00,WUHU216HW,2013-05-06 13:12:00,
2013-05-06 05:17:00,28.9,22.2,29.78,South,180,0.0,0.0,76,0.00,,,0.00,WUHU216HW,2013-05-06 13:17:00,
2013-05-06 05:22:00,28.9,22.2,29.78,South,180,0.0,0.0,76,0.00,,,0.00,WUHU216HW,2013-05-06 13:22:00,
2013-05-06 05:27:00,28.9,22.2,29.78,South,180,0.0,0.0,76,0.00,,,0.00,WUHU216HW,2013-05-06 13:27:00,
2013-05-06 05:32:00,29.1,22.4,29.78,South,180,0.0,0.0,76,0.00,,,0.00,WUHU216HW,2013-05-06 13:32:00,
2013-05-06 05:37:00,29.1,22.4,29.78,South,180,0.0,0.0,76,0.00,,,0.00,WUHU216HW,2013-05-06 13:37:00,
2013-05-06 05:42:00,29.1,22.4,29.78,South,180,0.0,0.0,76,0.00,,,0.00,WUHU216HW,2013-05-06 13:42:00,
2013-05-06 05:47:00,29.1,22.4,29.78,South,180,0.0,0.0,76,0.00,,,0.00,WUHU216HW,2013-05-06 13:47:00,
2013-05-06 05:52:00,29.1,22.4,29.78,South,180,0.0,0.0,76,0.00,,,0.00,WUHU216HW,2013-05-06 13:52:00,
2013-05-06 05:57:00,29.1,22.4,29.78,South,180,0.0,0.0,76,0.00,,,0.00,WUHU216HW,2013-05-06 13:57:00,
2013-05-06 06:02:00,29.3,22.6,29.78,South,180,0.0,0.0,76,0.00,,,0.00,WUHU216HW,2013-05-06 14:02:00,
2013-05-06 06:07:00,29.3,22.9,29.78,South,180,0.0,0.0,77,0.00,,,0.00,WUHU216HW,2013-05-06 14:07:00,
2013-05-06 06:12:00,29.3,22.9,29.78,South,180,0.0,0.0,77,0.00,,,0.00,WUHU216HW,2013-05-06 14:12:00,
2013-05-06 06:17:00,29.3,22.9,29.78,South,180,0.0,0.0,77,0.00,,,0.00,WUHU216HW,2013-05-06 14:17:00,
2013-05-06 06:22:00,29.4,23.1,29.78,South,180,0.0,0.0,77,0.00,,,0.00,WUHU216HW,2013-05-06 14:22:00,
2013-05-06 06:27:00,29.6,23.2,29.78,South,180,0.0,0.0,77,0.00,,,0.00,WUHU216HW,2013-05-06 14:27:00,
2013-05-06 06:32:00,29.8,23.4,29.79,South,180,0.0,0.0,77,0.00,,,0.00,WUHU216HW,2013-05-06 14:32:00,
2013-05-06 06:37:00,29.8,23.4,29.78,South,180,0.0,0.0,77,0.00,,,0.00,WUHU216HW,2013-05-06 14:37:00,
2013-05-06 06:42:00,30.0,23.6,29.79,South,180,0.0,0.0,77,0.00,,,0.00,WUHU216HW,2013-05-06 14:42:00,
2013-05-06 06:47:00,30.2,23.8,29.79,South,180,0.0,0.0,77,0.00,,,0.00,WUHU216HW,2013-05-06 14:47:00,
2013-05-06 06:52:00,30.3,24.0,29.79,South,180,0.0,0.0,77,0.00,,,0.00,WUHU216HW,2013-05-06 14:52:00,
2013-05-06 06:57:00,30.3,24.0,29.79,South,180,0.0,0.0,77,0.00,,,0.00,WUHU216HW,2013-05-06 14:57:00,
2013-05-06 07:02:00,30.3,24.3,29.79,South,180,0.0,0.0,78,0.00,,,0.00,WUHU216HW,2013-05-06 15:02:00,
2013-05-06 07:07:00,30.7,24.6,29.79,South,180,0.0,0.0,78,0.00,,,0.00,WUHU216HW,2013-05-06 15:07:00,
2013-05-06 07:12:00,30.9,24.8,29.78,South,180,0.0,0.0,78,0.00,,,0.00,WUHU216HW,2013-05-06 15:12:00,
2013-05-06 07:17:00,31.1,25.0,29.78,South,180,0.0,0.0,78,0.00,,,0.00,WUHU216HW,2013-05-06 15:17:00,
2013-05-06 07:22:00,31.6,25.5,29.78,South,180,0.0,0.0,78,0.00,,,0.00,WUHU216HW,2013-05-06 15:22:00,
2013-05-06 07:27:00,31.8,25.7,29.79,South,180,0.0,0.0,78,0.00,,,0.00,WUHU216HW,2013-05-06 15:27:00,
2013-05-06 07:32:00,31.8,25.7,29.78,South,180,0.0,0.0,78,0.00,,,0.00,WUHU216HW,2013-05-06 15:32:00,
2013-05-06 07:37:00,32.5,26.1,29.78,South,180,0.0,0.0,77,0.00,,,0.00,WUHU216HW,2013-05-06 15:37:00,
2013-05-06 07:42:00,32.7,26.2,29.78,South,180,0.0,0.0,77,0.00,,,0.00,WUHU216HW,2013-05-06 15:42:00,
2013-05-06 07:47:00,32.9,26.4,29.79,South,180,0.0,0.0,77,0.00,,,0.00,WUHU216HW,2013-05-06 15:47:00,
2013-05-06 07:52:00,33.0,26.6,29.79,South,180,0.4,0.4,77,0.00,,,0.00,WUHU216HW,2013-05-06 15:52:00,
2013-05-06 07:57:00,33.0,26.2,29.79,South,180,0.0,0.4,76,0.00,,,0.00,WUHU216HW,2013-05-06 15:57:00,
2013-05-06 08:02:00,33.0,26.2,29.79,SE,135,0.0,0.4,76,0.00,,,0.00,WUHU216HW,2013-05-06 16:02:00,
2013-05-06 08:07:00,33.6,26.7,29.79,ESE,113,0.0,0.4,76,0.00,,,0.00,WUHU216HW,2013-05-06 16:07:00,
2013-05-06 08:12:00,33.8,26.9,29.79,ESE,113,0.0,0.0,76,0.00,,,0.00,WUHU216HW,2013-05-06 16:12:00,
2013-05-06 08:17:00,34.3,27.4,29.79,ESE,113,0.0,0.0,76,0.00,,,0.00,WUHU216HW,2013-05-06 16:17:00,
2013-05-06 08:22:00,34.5,27.6,29.79,ESE,113,0.0,0.0,76,0.00,,,0.00,WUHU216HW,2013-05-06 16:22:00,
2013-05-06 08:27:00,34.8,28.0,29.79,ESE,113,0.0,0.0,76,0.00,,,0.00,WUHU216HW,2013-05-06 16:27:00,
2013-05-06 08:32:00,34.8,27.6,29.79,ESE,113,0.0,0.0,75,0.00,,,0.00,WUHU216HW,2013-05-06 16:32:00,
2013-05-06 08:37:00,35.7,28.5,29.79,ESE,113,0.0,0.0,75,0.00,,,0.00,WUHU216HW,2013-05-06 16:37:00,
2013-05-06 08:43:00,36.3,29.1,29.79,East,90,0.0,0.0,75,0.00,,,0.00,WUHU216HW,2013-05-06 16:43:00,
2013-05-06 08:48:00,38.1,30.8,29.79,NE,45,0.0,1.1,75,0.00,,,0.00,WUHU216HW,2013-05-06 16:48:00,
2013-05-06 08:53:00,39.3,31.7,29.79,NE,45,0.2,1.1,74,0.00,,,0.00,WUHU216HW,2013-05-06 16:53:00,
2013-05-06 08:58:00,40.2,31.6,29.79,ESE,113,0.0,4.2,71,0.00,,,0.00,WUHU216HW,2013-05-06 16:58:00,
2013-05-06 09:03:00,40.8,31.0,29.79,SE,135,1.7,4.2,68,0.00,,,0.00,WUHU216HW,2013-05-06 17:03:00,
2013-05-06 09:08:00,40.8,30.6,29.79,SSW,203,0.0,1.7,67,0.00,,,0.00,WUHU216HW,2013-05-06 17:08:00,
2013-05-06 09:13:00,41.3,30.4,29.79,SSW,203,0.8,2.2,65,0.00,,,0.00,WUHU216HW,2013-05-06 17:13:00,
2013-05-06 09:18:00,41.7,30.3,29.79,SSW,203,0.6,2.2,64,0.00,,,0.00,WUHU216HW,2013-05-06 17:18:00,
2013-05-06 09:23:00,42.0,29.9,29.79,SSE,158,5.1,5.1,62,0.00,,,0.00,WUHU216HW,2013-05-06 17:23:00,
2013-05-06 09:28:00,42.4,29.5,29.79,SSE,158,1.7,5.1,60,0.00,,,0.00,WUHU216HW,2013-05-06 17:28:00,
2013-05-06 09:33:00,42.8,28.9,29.79,SSW,203,1.1,3.3,58,0.00,,,0.00,WUHU216HW,2013-05-06 17:33:00,
2013-05-06 09:38:00,42.9,28.7,29.79,SSE,158,6.9,6.9,57,0.00,,,0.00,WUHU216HW,2013-05-06 17:38:00,
2013-05-06 09:43:00,43.1,28.4,29.79,South,180,4.6,6.9,56,0.00,,,0.00,WUHU216HW,2013-05-06 17:43:00,
2013-05-06 09:48:00,43.5,28.3,29.79,SE,135,0.0,4.6,55,0.00,,,0.00,WUHU216HW,2013-05-06 17:48:00,
2013-05-06 09:53:00,44.2,29.0,29.79,SSE,158,2.6,4.6,55,0.00,,,0.00,WUHU216HW,2013-05-06 17:53:00,
2013-05-06 09:58:00,45.3,29.5,29.79,SSW,203,0.0,2.6,54,0.00,,,0.00,WUHU216HW,2013-05-06 17:58:00,
2013-05-06 10:03:00,47.1,31.2,29.79,SSE,158,0.0,0.0,54,0.00,,,0.00,WUHU216HW,2013-05-06 18:03:00,
2013-05-06 10:08:00,49.2,31.9,29.79,SW,225,1.5,1.5,51,0.00,,,0.00,WUHU216HW,2013-05-06 18:08:00,
2013-05-06 10:13:00,51.4,31.2,29.79,SW,225,1.3,2.4,46,0.00,,,0.00,WUHU216HW,2013-05-06 18:13:00,
2013-05-06 10:18:00,53.2,32.3,29.79,SW,225,0.0,2.4,45,0.00,,,0.00,WUHU216HW,2013-05-06 18:18:00,
2013-05-06 10:23:00,54.1,32.0,29.79,SSW,203,7.8,7.8,43,0.00,,,0.00,WUHU216HW,2013-05-06 18:23:00,
2013-05-06 10:28:00,53.2,31.1,29.79,South,180,4.4,7.8,41,0.00,,,0.00,WUHU216HW,2013-05-06 18:28:00,
2013-05-06 10:33:00,52.7,29.5,29.79,South,180,4.0,4.4,41,0.00,,,0.00,WUHU216HW,2013-05-06 18:33:00,
2013-05-06 10:38:00,52.8,30.3,29.79,SSW,203,0.8,4.4,42,0.00,,,0.00,WUHU216HW,2013-05-06 18:38:00,
2013-05-06 10:43:00,53.4,30.2,29.79,SSE,158,2.0,4.0,41,0.00,,,0.00,WUHU216HW,2013-05-06 18:43:00,
2013-05-06 10:48:00,53.4,29.6,29.79,South,180,6.9,6.9,40,0.00,,,0.00,WUHU216HW,2013-05-06 18:48:00,
2013-05-06 10:53:00,52.8,29.1,29.79,South,180,2.9,6.9,40,0.00,,,0.00,WUHU216HW,2013-05-06 18:53:00,
2013-05-06 10:58:00,52.1,28.5,29.79,South,180,6.0,6.9,40,0.00,,,0.00,WUHU216HW,2013-05-06 18:58:00,
2013-05-06 11:03:00,51.6,28.0,29.78,SSE,158,3.1,6.4,40,0.00,,,0.00,WUHU216HW,2013-05-06 19:03:00,
2013-05-06 11:08:00,51.4,27.8,29.78,South,180,0.0,6.4,40,0.00,,,0.00,WUHU216HW,2013-05-06 19:08:00,
2013-05-06 11:13:00,51.0,26.8,29.79,South,180,0.0,9.8,39,0.00,,,0.00,WUHU216HW,2013-05-06 19:13:00,
2013-05-06 11:18:00,50.7,27.2,29.79,ESE,113,0.0,9.8,40,0.00,,,0.00,WUHU216HW,2013-05-06 19:18:00,
2013-05-06 11:23:00,50.5,27.0,29.79,South,180,3.5,6.0,40,0.00,,,0.00,WUHU216HW,2013-05-06 19:23:00,
2013-05-06 11:29:00,50.3,26.9,29.79,SSE,158,1.7,8.5,40,0.00,,,0.00,WUHU216HW,2013-05-06 19:29:00,
2013-05-06 11:34:00,50.1,26.7,29.79,SE,135,1.3,8.5,40,0.00,,,0.00,WUHU216HW,2013-05-06 19:34:00,
2013-05-06 11:39:00,50.1,26.0,29.79,SW,225,2.2,2.4,39,0.00,,,0.00,WUHU216HW,2013-05-06 19:39:00,
2013-05-06 11:44:00,50.5,27.0,29.79,SSE,158,7.8,7.8,40,0.00,,,0.00,WUHU216HW,2013-05-06 19:44:00,
2013-05-06 11:49:00,51.4,28.4,29.79,SW,225,2.6,7.8,41,0.00,,,0.00,WUHU216HW,2013-05-06 19:49:00,
2013-05-06 11:54:00,53.4,28.9,29.79,South,180,2.4,7.8,39,0.00,,,0.00,WUHU216HW,2013-05-06 19:54:00,
2013-05-06 11:59:00,55.7,30.3,29.79,SSW,203,0.0,7.3,38,0.00,,,0.00,WUHU216HW,2013-05-06 19:59:00,
2013-05-06 12:04:00,57.5,31.2,29.79,SSW,203,0.0,7.3,37,0.00,,,0.00,WUHU216HW,2013-05-06 20:04:00,
2013-05-06 12:09:00,58.8,31.7,29.79,SW,225,0.0,0.0,36,0.00,,,0.00,WUHU216HW,2013-05-06 20:09:00,
2013-05-06 12:14:00,60.4,32.4,29.79,ESE,113,3.3,3.3,35,0.00,,,0.00,WUHU216HW,2013-05-06 20:14:00,
2013-05-06 12:19:00,60.6,31.8,29.80,SSW,203,3.5,4.9,34,0.00,,,0.00,WUHU216HW,2013-05-06 20:19:00,
2013-05-06 12:24:00,59.7,31.0,29.80,SE,135,3.3,5.8,34,0.00,,,0.00,WUHU216HW,2013-05-06 20:24:00,
2013-05-06 12:29:00,59.7,31.0,29.79,SE,135,3.3,5.8,34,0.00,,,0.00,WUHU216HW,2013-05-06 20:29:00,
2013-05-06 12:34:00,60.0,31.3,29.80,SW,225,5.5,5.5,34,0.00,,,0.00,WUHU216HW,2013-05-06 20:34:00,
2013-05-06 12:39:00,59.9,30.5,29.80,South,180,2.0,5.5,33,0.00,,,0.00,WUHU216HW,2013-05-06 20:39:00,
2013-05-06 12:44:00,59.7,31.0,29.80,South,180,0.2,7.6,34,0.00,,,0.00,WUHU216HW,2013-05-06 20:44:00,
2013-05-06 12:49:00,60.4,31.6,29.80,SE,135,3.3,7.6,33,0.00,,,0.00,WUHU216HW,2013-05-06 20:49:00,
2013-05-06 12:54:00,60.6,31.1,29.80,SSW,203,9.8,9.8,33,0.00,,,0.00,WUHU216HW,2013-05-06 20:54:00,
2013-05-06 12:59:00,60.6,31.1,29.80,South,180,0.0,9.8,33,0.00,,,0.00,WUHU216HW,2013-05-06 20:59:00,
2013-05-06 13:04:00,60.9,31.4,29.80,SSE,158,9.6,9.8,33,0.00,,,0.00,WUHU216HW,2013-05-06 21:04:00,
2013-05-06 13:09:00,61.3,31.7,29.79,West,270,3.1,9.6,33,0.00,,,0.00,WUHU216HW,2013-05-06 21:09:00,
2013-05-06 13:14:00,61.3,31.7,29.80,SSW,203,0.0,3.8,33,0.00,,,0.00,WUHU216HW,2013-05-06 21:14:00,
2013-05-06 13:19:00,61.8,31.5,29.80,SSW,203,5.5,5.5,32,0.00,,,0.00,WUHU216HW,2013-05-06 21:19:00,
2013-05-06 13:24:00,62.4,32.0,29.79,SSE,158,4.4,6.4,32,0.00,,,0.00,WUHU216HW,2013-05-06 21:24:00,
2013-05-06 13:29:00,62.2,32.5,29.79,SSE,158,3.8,6.4,33,0.00,,,0.00,WUHU216HW,2013-05-06 21:29:00,
2013-05-06 13:34:00,62.7,33.0,29.79,SSE,158,2.9,4.6,33,0.00,,,0.00,WUHU216HW,2013-05-06 21:34:00,
2013-05-06 13:39:00,62.6,32.9,29.79,West,270,0.6,3.8,33,0.00,,,0.00,WUHU216HW,2013-05-06 21:39:00,
2013-05-06 13:44:00,62.9,32.5,29.80,South,180,1.1,5.5,32,0.00,,,0.00,WUHU216HW,2013-05-06 21:44:00,
2013-05-06 13:50:00,62.4,32.0,29.79,SSW,203,4.0,5.5,32,0.00,,,0.00,WUHU216HW,2013-05-06 21:50:00,
2013-05-06 13:55:00,63.5,33.7,29.80,SSW,203,4.4,4.4,33,0.00,,,0.00,WUHU216HW,2013-05-06 21:55:00,
2013-05-06 14:00:00,64.9,35.5,29.80,NW,315,4.9,4.9,34,0.00,,,0.00,WUHU216HW,2013-05-06 22:00:00,
2013-05-06 14:05:00,65.3,36.7,29.80,WSW,248,0.0,6.4,35,0.00,,,0.00,WUHU216HW,2013-05-06 22:05:00,
2013-05-06 14:10:00,63.6,34.5,29.80,WSW,248,2.6,12.0,34,0.00,,,0.00,WUHU216HW,2013-05-06 22:10:00,
2013-05-06 14:15:00,60.8,34.1,29.80,West,270,2.0,12.0,37,0.00,,,0.00,WUHU216HW,2013-05-06 22:15:00,
2013-05-06 14:20:00,59.1,33.5,29.80,WNW,293,0.0,10.7,37,0.00,,,0.00,WUHU216HW,2013-05-06 22:20:00,
2013-05-06 14:25:00,57.7,32.1,29.81,West,270,6.2,7.1,38,0.00,,,0.00,WUHU216HW,2013-05-06 22:25:00,
2013-05-06 14:30:00,57.7,32.8,29.81,NNW,338,6.4,7.1,39,0.00,,,0.00,WUHU216HW,2013-05-06 22:30:00,
2013-05-06 14:35:00,57.9,33.0,29.81,West,270,3.5,7.1,39,0.00,,,0.00,WUHU216HW,2013-05-06 22:35:00,
2013-05-06 14:41:00,57.9,33.7,29.80,WNW,293,8.9,8.9,40,0.00,,,0.00,WUHU216HW,2013-05-06 22:41:00,
2013-05-06 14:46:00,57.7,32.8,29.81,West,270,9.1,10.0,39,0.00,,,0.00,WUHU216HW,2013-05-06 22:46:00,
2013-05-06 14:51:00,55.5,31.6,29.81,WNW,293,2.4,10.0,40,0.00,,,0.00,WUHU216HW,2013-05-06 22:51:00,
2013-05-06 14:56:00,55.0,31.1,29.81,WNW,293,2.0,10.0,40,0.00,,,0.00,WUHU216HW,2013-05-06 22:56:00,
2013-05-06 15:01:00,53.7,31.1,29.81,WSW,248,2.0,5.5,42,0.00,,,0.00,WUHU216HW,2013-05-06 23:01:00,
2013-05-06 15:06:00,53.9,31.2,29.81,WNW,293,6.0,6.0,42,0.00,,,0.00,WUHU216HW,2013-05-06 23:06:00,
2013-05-06 15:11:00,54.8,32.0,29.81,West,270,2.9,6.0,42,0.00,,,0.00,WUHU216HW,2013-05-06 23:11:00,
2013-05-06 15:16:00,57.0,33.4,29.81,SW,225,4.6,7.3,41,0.00,,,0.00,WUHU216HW,2013-05-06 23:16:00,
2013-05-06 15:21:00,59.5,35.1,29.81,West,270,1.1,7.3,40,0.00,,,0.00,WUHU216HW,2013-05-06 23:21:00,
2013-05-06 15:26:00,60.0,34.2,29.81,WNW,293,4.9,6.9,38,0.00,,,0.00,WUHU216HW,2013-05-06 23:26:00,
2013-05-06 15:31:00,60.6,34.7,29.81,West,270,3.3,4.9,38,0.00,,,0.00,WUHU216HW,2013-05-06 23:31:00,
2013-05-06 15:36:00,59.1,33.4,29.81,West,270,4.2,4.9,38,0.00,,,0.00,WUHU216HW,2013-05-06 23:36:00,
2013-05-06 15:42:00,58.2,32.6,29.81,WNW,293,8.0,9.3,38,0.00,,,0.00,WUHU216HW,2013-05-06 23:42:00,
2013-05-06 15:47:00,57.3,32.5,29.81,West,270,7.6,12.7,39,0.00,,,0.00,WUHU216HW,2013-05-06 23:47:00,
2013-05-06 15:52:00,56.4,32.4,29.81,SW,225,2.0,12.7,40,0.00,,,0.00,WUHU216HW,2013-05-06 23:52:00,
2013-05-06 15:57:00,56.4,32.4,29.81,SW,225,2.0,12.7,40,0.00,,,0.00,WUHU216HW,2013-05-06 23:57:00,
2013-05-06 16:02:00,56.1,31.4,29.81,West,270,3.3,7.3,39,0.00,,,0.00,WUHU216HW,2013-05-07 00:02:00,
2013-05-06 16:07:00,55.0,31.1,29.81,WSW,248,1.7,5.1,40,0.00,,,0.00,WUHU216HW,2013-05-07 00:07:00,
2013-05-06 16:12:00,52.8,29.7,29.81,WNW,293,13.6,13.6,41,0.00,,,0.00,WUHU216HW,2013-05-07 00:12:00,
2013-05-06 16:17:00,51.6,29.1,29.81,WSW,248,0.0,13.6,42,0.00,,,0.00,WUHU216HW,2013-05-07 00:17:00,
2013-05-06 16:22:00,50.7,28.9,29.81,WNW,293,3.3,13.6,43,0.00,,,0.00,WUHU216HW,2013-05-07 00:22:00,
2013-05-06 16:27:00,50.5,29.3,29.81,WNW,293,5.3,7.3,44,0.00,,,0.00,WUHU216HW,2013-05-07 00:27:00,
2013-05-06 16:32:00,49.8,28.6,29.81,WSW,248,0.0,8.0,44,0.00,,,0.00,WUHU216HW,2013-05-07 00:32:00,
2013-05-06 16:37:00,49.8,28.6,29.81,WNW,293,5.3,8.0,44,0.00,,,0.00,WUHU216HW,2013-05-07 00:37:00,
2013-05-06 16:42:00,49.6,28.4,29.81,West,270,2.4,7.8,44,0.00,,,0.00,WUHU216HW,2013-05-07 00:42:00,
2013-05-06 16:48:00,49.4,28.8,29.81,West,270,3.8,5.8,45,0.00,,,0.00,WUHU216HW,2013-05-07 00:48:00,
2013-05-06 16:53:00,49.2,28.7,29.80,WNW,293,7.1,7.1,45,0.00,,,0.00,WUHU216HW,2013-05-07 00:53:00,
2013-05-06 16:58:00,49.1,29.0,29.80,West,270,4.6,7.1,46,0.00,,,0.00,WUHU216HW,2013-05-07 00:58:00,
2013-05-06 17:03:00,49.1,29.6,29.81,WNW,293,6.7,6.7,47,0.00,,,0.00,WUHU216HW,2013-05-07 01:03:00,
2013-05-06 17:08:00,48.9,29.4,29.81,WSW,248,3.8,6.9,47,0.00,,,0.00,WUHU216HW,2013-05-07 01:08:00,
2013-05-06 17:13:00,48.7,29.8,29.80,WSW,248,0.0,6.9,48,0.00,,,0.00,WUHU216HW,2013-05-07 01:13:00,
2013-05-06 17:18:00,48.7,29.2,29.80,West,270,2.6,6.9,47,0.00,,,0.00,WUHU216HW,2013-05-07 01:18:00,
2013-05-06 17:23:00,48.3,28.3,29.81,WNW,293,0.0,6.9,46,0.00,,,0.00,WUHU216HW,2013-05-07 01:23:00,
2013-05-06 17:28:00,48.3,28.3,29.80,West,270,3.1,3.5,46,0.00,,,0.00,WUHU216HW,2013-05-07 01:28:00,
2013-05-06 17:33:00,48.3,28.3,29.80,West,270,4.4,4.4,46,0.00,,,0.00,WUHU216HW,2013-05-07 01:33:00,
2013-05-06 17:38:00,48.2,28.2,29.81,SW,225,6.0,6.0,46,0.00,,,0.00,WUHU216HW,2013-05-07 01:38:00,
2013-05-06 17:40:00,48.3,28.3,29.81,West,270,1.7,6.0,46,0.00,,,0.00,WUHU216HW,2013-05-07 01:40:00,
2013-05-06 17:43:00,48.3,28.3,29.81,West,270,1.7,6.0,46,0.00,,,0.00,WUHU216HW,2013-05-07 01:43:00,
2013-05-06 17:48:00,48.3,28.3,29.81,West,270,1.7,6.0,46,0.00,,,0.00,WUHU216HW,2013-05-07 01:48:00,
2013-05-06 17:53:00,48.0,28.5,29.81,West,270,2.0,5.3,47,0.00,,,0.00,WUHU216HW,2013-05-07 01:53:00,
2013-05-06 17:58:00,48.0,28.5,29.81,WSW,248,3.3,6.7,47,0.00,,,0.00,WUHU216HW,2013-05-07 01:58:00,
2013-05-06 18:03:00,47.6,28.8,29.81,SSW,203,0.6,6.7,48,0.00,,,0.00,WUHU216HW,2013-05-07 02:03:00,
2013-05-06 18:08:00,47.4,28.6,29.82,West,270,5.1,6.7,48,0.00,,,0.00,WUHU216HW,2013-05-07 02:08:00,
2013-05-06 18:13:00,47.3,28.4,29.81,West,270,2.9,6.7,48,0.00,,,0.00,WUHU216HW,2013-05-07 02:13:00,
2013-05-06 18:18:00,47.1,28.3,29.81,WSW,248,6.0,6.0,48,0.00,,,0.00,WUHU216HW,2013-05-07 02:18:00,
2013-05-06 18:23:00,46.5,27.8,29.81,South,180,6.7,6.7,48,0.00,,,0.00,WUHU216HW,2013-05-07 02:23:00,
2013-05-06 18:28:00,46.5,27.8,29.82,WSW,248,5.1,6.7,48,0.00,,,0.00,WUHU216HW,2013-05-07 02:28:00,
2013-05-06 18:34:00,46.2,28.0,29.82,WSW,248,0.0,6.7,49,0.00,,,0.00,WUHU216HW,2013-05-07 02:34:00,
2013-05-06 18:39:00,46.2,28.0,29.82,SSW,203,4.9,5.1,49,0.00,,,0.00,WUHU216HW,2013-05-07 02:39:00,
2013-05-06 18:44:00,45.8,27.7,29.82,WNW,293,0.0,4.9,49,0.00,,,0.00,WUHU216HW,2013-05-07 02:44:00,
2013-05-06 18:49:00,45.6,27.5,29.82,SW,225,1.1,5.1,49,0.00,,,0.00,WUHU216HW,2013-05-07 02:49:00,
2013-05-06 18:54:00,45.3,27.2,29.82,WSW,248,0.2,5.1,49,0.00,,,0.00,WUHU216HW,2013-05-07 02:54:00,
2013-05-06 18:59:00,45.1,27.6,29.83,West,270,0.4,4.4,50,0.00,,,0.00,WUHU216HW,2013-05-07 02:59:00,
2013-05-06 19:04:00,44.9,27.4,29.82,WNW,293,0.0,0.8,50,0.00,,,0.00,WUHU216HW,2013-05-07 03:04:00,
2013-05-06 19:09:00,44.9,27.9,29.82,WSW,248,2.0,2.0,51,0.00,,,0.00,WUHU216HW,2013-05-07 03:09:00,
2013-05-06 19:14:00,44.7,27.7,29.82,West,270,0.0,2.6,51,0.00,,,0.00,WUHU216HW,2013-05-07 03:14:00,
2013-05-06 19:19:00,44.7,27.7,29.83,West,270,0.0,2.6,51,0.00,,,0.00,WUHU216HW,2013-05-07 03:19:00,
2013-05-06 19:24:00,44.4,27.4,29.83,West,270,2.4,3.3,51,0.00,,,0.00,WUHU216HW,2013-05-07 03:24:00,
2013-05-06 19:29:00,44.4,27.4,29.83,SSW,203,5.3,5.3,51,0.00,,,0.00,WUHU216HW,2013-05-07 03:29:00,
2013-05-06 19:34:00,44.0,27.0,29.83,SW,225,1.1,5.3,51,0.00,,,0.00,WUHU216HW,2013-05-07 03:34:00,
2013-05-06 19:39:00,43.8,26.9,29.83,SSW,203,0.0,2.2,51,0.00,,,0.00,WUHU216HW,2013-05-07 03:39:00,
2013-05-06 19:44:00,43.8,27.3,29.83,WNW,293,1.1,2.2,52,0.00,,,0.00,WUHU216HW,2013-05-07 03:44:00,
2013-05-06 19:49:00,43.7,27.2,29.83,SSW,203,0.0,1.5,52,0.00,,,0.00,WUHU216HW,2013-05-07 03:49:00,
2013-05-06 19:54:00,43.5,27.0,29.83,WSW,248,3.8,3.8,52,0.00,,,0.00,WUHU216HW,2013-05-07 03:54:00,
2013-05-06 19:59:00,43.3,27.3,29.83,West,270,0.8,3.8,53,0.00,,,0.00,WUHU216HW,2013-05-07 03:59:00,
2013-05-06 20:01:00,43.3,27.3,29.83,West,270,0.8,3.8,53,0.00,,,0.00,WUHU216HW,2013-05-07 04:01:00,
2013-05-06 20:06:00,42.9,26.9,29.83,West,270,0.2,1.7,53,0.00,,,0.00,WUHU216HW,2013-05-07 04:06:00,
2013-05-06 20:11:00,42.9,26.9,29.83,WNW,293,3.5,3.5,53,0.00,,,0.00,WUHU216HW,2013-05-07 04:11:00,
2013-05-06 20:16:00,42.6,27.0,29.83,SW,225,1.3,3.5,54,0.00,,,0.00,WUHU216HW,2013-05-07 04:16:00,
2013-05-06 20:21:00,42.4,27.3,29.83,WSW,248,2.4,4.6,55,0.00,,,0.00,WUHU216HW,2013-05-07 04:21:00,
2013-05-06 20:26:00,42.4,27.3,29.83,WSW,248,0.2,4.6,55,0.00,,,0.00,WUHU216HW,2013-05-07 04:26:00,
2013-05-06 20:31:00,42.0,27.4,29.83,WSW,248,0.0,2.4,56,0.00,,,0.00,WUHU216HW,2013-05-07 04:31:00,
2013-05-06 20:36:00,41.9,27.2,29.83,WSW,248,1.3,4.2,56,0.00,,,0.00,WUHU216HW,2013-05-07 04:36:00,
2013-05-06 20:41:00,41.7,27.0,29.83,WSW,248,0.8,4.2,56,0.00,,,0.00,WUHU216HW,2013-05-07 04:41:00,
2013-05-06 20:46:00,41.7,27.0,29.83,WSW,248,1.1,2.6,56,0.00,,,0.00,WUHU216HW,2013-05-07 04:46:00,
2013-05-06 20:51:00,41.5,27.3,29.84,West,270,0.0,1.1,57,0.00,,,0.00,WUHU216HW,2013-05-07 04:51:00,
2013-05-06 20:56:00,41.3,27.1,29.84,WSW,248,0.0,0.6,57,0.00,,,0.00,WUHU216HW,2013-05-07 04:56:00,
2013-05-06 21:01:00,41.1,26.5,29.84,WSW,248,0.0,0.0,56,0.00,,,0.00,WUHU216HW,2013-05-07 05:01:00,
2013-05-06 21:06:00,40.8,26.6,29.84,SW,225,0.0,0.2,57,0.00,,,0.00,WUHU216HW,2013-05-07 05:06:00,
2013-05-06 21:11:00,40.8,26.6,29.84,WSW,248,0.0,0.2,57,0.00,,,0.00,WUHU216HW,2013-05-07 05:11:00,
2013-05-06 21:16:00,40.6,26.5,29.84,WSW,248,0.0,0.0,57,0.00,,,0.00,WUHU216HW,2013-05-07 05:16:00,
2013-05-06 21:21:00,40.4,26.3,29.84,WSW,248,0.0,0.0,57,0.00,,,0.00,WUHU216HW,2013-05-07 05:21:00,
2013-05-06 21:26:00,40.1,25.9,29.84,WSW,248,0.0,0.0,57,0.00,,,0.00,WUHU216HW,2013-05-07 05:26:00,
2013-05-06 21:31:00,39.9,25.8,29.84,WSW,248,0.0,0.0,57,0.00,,,0.00,WUHU216HW,2013-05-07 05:31:00,
2013-05-06 21:36:00,39.5,25.4,29.84,WSW,248,0.0,0.0,57,0.00,,,0.00,WUHU216HW,2013-05-07 05:36:00,
2013-05-06 21:41:00,39.3,25.7,29.84,WSW,248,0.0,0.0,58,0.00,,,0.00,WUHU216HW,2013-05-07 05:41:00,
2013-05-06 21:46:00,39.0,25.8,29.85,WSW,248,0.0,0.0,59,0.00,,,0.00,WUHU216HW,2013-05-07 05:46:00,
2013-05-06 21:52:00,38.8,25.6,29.85,WSW,248,0.0,0.0,59,0.00,,,0.00,WUHU216HW,2013-05-07 05:52:00,
2013-05-06 21:57:00,38.3,25.1,29.85,WSW,248,0.0,0.0,59,0.00,,,0.00,WUHU216HW,2013-05-07 05:57:00,
2013-05-06 22:02:00,38.1,25.4,29.85,WSW,248,0.0,0.0,60,0.00,,,0.00,WUHU216HW,2013-05-07 06:02:00,
2013-05-06 22:07:00,37.5,24.9,29.85,WSW,248,0.0,0.0,60,0.00,,,0.00,WUHU216HW,2013-05-07 06:07:00,
2013-05-06 22:12:00,37.2,24.6,29.85,WSW,248,0.0,0.0,60,0.00,,,0.00,WUHU216HW,2013-05-07 06:12:00,
2013-05-06 22:17:00,36.8,25.0,29.86,WSW,248,0.0,0.0,62,0.00,,,0.00,WUHU216HW,2013-05-07 06:17:00,
2013-05-06 22:22:00,36.5,24.7,29.86,WSW,248,0.0,0.0,62,0.00,,,0.00,WUHU216HW,2013-05-07 06:22:00,
2013-05-06 22:27:00,36.3,24.9,29.86,WSW,248,0.0,0.0,63,0.00,,,0.00,WUHU216HW,2013-05-07 06:27:00,
2013-05-06 22:32:00,35.7,24.7,29.86,WSW,248,0.0,0.0,64,0.00,,,0.00,WUHU216HW,2013-05-07 06:32:00,
2013-05-06 22:37:00,35.4,24.4,29.86,WSW,248,0.0,0.0,64,0.00,,,0.00,WUHU216HW,2013-05-07 06:37:00,
2013-05-06 22:42:00,35.4,24.8,29.86,WSW,248,0.0,0.0,65,0.00,,,0.00,WUHU216HW,2013-05-07 06:42:00,
2013-05-06 22:47:00,35.2,24.9,29.86,WSW,248,0.0,0.0,66,0.00,,,0.00,WUHU216HW,2013-05-07 06:47:00,
2013-05-06 22:52:00,34.8,24.6,29.86,WSW,248,0.0,0.0,66,0.00,,,0.00,WUHU216HW,2013-05-07 06:52:00,
2013-05-06 22:57:00,34.5,24.6,29.86,WSW,248,0.0,0.0,67,0.00,,,0.00,WUHU216HW,2013-05-07 06:57:00,
2013-05-06 23:02:00,34.3,24.4,29.86,WSW,248,0.0,0.0,67,0.00,,,0.00,WUHU216HW,2013-05-07 07:02:00,
2013-05-06 23:07:00,34.3,24.4,29.86,WSW,248,0.0,0.0,67,0.00,,,0.00,WUHU216HW,2013-05-07 07:07:00,
2013-05-06 23:12:00,34.3,24.8,29.86,WSW,248,0.0,0.0,68,0.00,,,0.00,WUHU216HW,2013-05-07 07:12:00,
2013-05-06 23:17:00,34.1,24.9,29.86,WSW,248,0.0,0.0,69,0.00,,,0.00,WUHU216HW,2013-05-07 07:17:00,
2013-05-06 23:22:00,33.9,24.4,29.86,WSW,248,0.0,0.0,68,0.00,,,0.00,WUHU216HW,2013-05-07 07:22:00,
2013-05-06 23:27:00,33.6,24.0,29.86,WSW,248,0.0,0.0,68,0.00,,,0.00,WUHU216HW,2013-05-07 07:27:00,
2013-05-06 23:32:00,33.6,24.4,29.86,WSW,248,0.0,0.0,69,0.00,,,0.00,WUHU216HW,2013-05-07 07:32:00,
2013-05-06 23:37:00,33.4,24.6,29.86,WSW,248,0.0,0.0,70,0.00,,,0.00,WUHU216HW,2013-05-07 07:37:00,
2013-05-06 23:42:00,33.4,24.6,29.86,WSW,248,0.0,0.0,70,0.00,,,0.00,WUHU216HW,2013-05-07 07:42:00,
2013-05-06 23:47:00,33.4,24.6,29.87,WSW,248,0.0,0.0,70,0.00,,,0.00,WUHU216HW,2013-05-07 07:47:00,
2013-05-06 23:52:00,33.0,24.3,29.86,WSW,248,0.0,0.0,70,0.00,,,0.00,WUHU216HW,2013-05-07 07:52:00,
2013-05-06 23:57:00,33.0,24.3,29.87,WSW,248,0.0,0.0,70,0.00,,,0.00,WUHU216HW,2013-05-07 07:57:00,